Weather in Shaydoma

Russia / Republic of Karelia     62°42′19″N   34°12′11″E
temp.,
°C
wind,
m/s
gust,
m/s
humid.,
%
clouds,
%
prec.,
mm/h
press.,
hPa
HPBL,
m
31 july, sat
sat3100:00+13ssw28855 0.0 997177
03:00+12ssw23945 0.0 99654
06:00+13s158773 0.0 995170
09:00+19ssw236010 0.0 994611
12:00+19s33676 1.3 994915
15:00+19s33745 3.1 994708
18:00+20wsw12586 0.1 995948
21:00+15wsw118354 0.3 99725
1 august, sun
sun100:00+13wsw23961 0.0 99849
03:00+12wsw24975 0.0 99979
06:00+14sw14915 0.0 1000137
09:00+18sw346812 0.0 1000462
12:00+23ssw3446100 0.0 10001648
15:00+20ssw4670100 0.6 1000939
18:00+18ssw3786100 1.2 999448
21:00+15ssw229292 3.6 99935
2 august, mon
mon200:00+13ssw269711 0.0 1000120
03:00+13ssw269818 0.0 1000143
06:00+14ssw389995 0.0 1001351
09:00+15sw3894100 0.1 1002581
12:00+16sw4787100 0.1 1002619
15:00+19sw3662100 0.1 10021181
18:00+22ssw3448100 0.0 10011361
21:00+17ssw1170100 0.0 100116
3 august, tue
tue300:00+15nne1176100 0.0 100011
03:00+13ne1399100 2.3 998110
06:00+13nnw41098100 12.8 996487
09:00+14nw3997100 14.4 995504
12:00+15nw3792100 0.1 997575
15:00+20wnw465678 0.1 9981298
18:00+19w236051 0.1 9991069
21:00+14nw119218 1.3 100116
4 august, wed
wed400:00+12wnw499841 0.9 1003333
03:00+12wnw3997100 0.9 1004488
06:00+11nw3795100 0.2 1007570
09:00+10nw3690100 0.3 1009757
12:00+11nw4672100 0.1 1012983
15:00+12nw356695 0.1 10141108
18:00+13nnw356278 0.0 1016930
21:00+9ne22811 0.0 101716